Time,TemperatureF,DewpointF,PressureIn,WindDirection,WindDirectionDegrees,WindSpeedMPH,WindSpeedGustMPH,Humidity,HourlyPrecipIn,Conditions,Clouds,dailyrainin,SolarRadiationWatts/m^2,SoftwareType,DateUTC
2013-01-12 00:02:00,73.0,60.0,-100.00,NE,41,7.0,16.0,63,0.00,,,0.00,0.000000,,2013-01-12 10:02:00,
2013-01-12 00:11:00,73.0,60.0,-100.00,NE,41,7.0,16.0,63,0.00,,,0.00,0.000000,,2013-01-12 10:11:00,
2013-01-12 00:22:00,73.0,60.0,-100.00,NE,41,7.0,16.0,63,0.00,,,0.00,0.000000,,2013-01-12 10:22:00,
2013-01-12 00:32:00,73.0,60.0,-100.00,NE,41,7.0,16.0,63,0.00,,,0.00,0.000000,,2013-01-12 10:32:00,
2013-01-12 00:52:00,72.0,59.0,-100.00,ENE,73,5.0,17.0,63,0.00,,,0.00,0.000000,,2013-01-12 10:52:00,
2013-01-12 01:02:00,72.0,59.0,-100.00,ENE,73,5.0,17.0,63,0.00,,,0.00,0.000000,,2013-01-12 11:02:00,
2013-01-12 01:12:00,72.0,59.0,-100.00,ENE,73,5.0,17.0,63,0.00,,,0.00,0.000000,,2013-01-12 11:12:00,
2013-01-12 01:22:00,72.0,59.0,-100.00,ENE,73,5.0,17.0,63,0.00,,,0.00,0.000000,,2013-01-12 11:22:00,
2013-01-12 01:32:00,72.0,59.0,-100.00,ENE,73,5.0,17.0,63,0.00,,,0.00,0.000000,,2013-01-12 11:32:00,
2013-01-12 01:53:00,70.0,62.0,-100.00,South,172,3.0,16.0,75,0.00,,,0.00,0.000000,,2013-01-12 11:53:00,
2013-01-12 02:02:00,70.0,62.0,-100.00,South,172,3.0,16.0,75,0.00,,,0.00,0.000000,,2013-01-12 12:02:00,
2013-01-12 02:12:00,70.0,62.0,-100.00,South,172,3.0,16.0,75,0.00,,,0.00,0.000000,,2013-01-12 12:12:00,
2013-01-12 02:22:00,70.0,62.0,-100.00,South,172,3.0,16.0,75,0.00,,,0.00,0.000000,,2013-01-12 12:22:00,
2013-01-12 02:32:00,70.0,62.0,-100.00,South,172,3.0,16.0,75,0.00,,,0.00,0.000000,,2013-01-12 12:32:00,
2013-01-12 03:02:00,67.0,60.0,-100.00,NNE,30,3.0,13.0,79,0.00,,,0.00,0.000000,,2013-01-12 13:02:00,
2013-01-12 03:12:00,67.0,60.0,-100.00,NNE,30,3.0,13.0,79,0.00,,,0.00,0.000000,,2013-01-12 13:12:00,
2013-01-12 03:22:00,67.0,60.0,-100.00,NNE,30,3.0,13.0,79,0.00,,,0.00,0.000000,,2013-01-12 13:22:00,
2013-01-12 03:32:00,67.0,60.0,-100.00,NNE,30,3.0,13.0,79,0.00,,,0.00,0.000000,,2013-01-12 13:32:00,
2013-01-12 03:53:00,69.0,61.0,-100.00,NW,308,3.0,13.0,77,0.00,,,0.00,0.000000,,2013-01-12 13:53:00,
2013-01-12 04:02:00,69.0,61.0,-100.00,NW,308,3.0,13.0,77,0.00,,,0.00,0.000000,,2013-01-12 14:02:00,
2013-01-12 04:12:00,69.0,61.0,-100.00,NW,308,3.0,13.0,77,0.00,,,0.00,0.000000,,2013-01-12 14:12:00,
2013-01-12 04:22:00,69.0,61.0,-100.00,NW,308,3.0,13.0,77,0.00,,,0.00,0.000000,,2013-01-12 14:22:00,
2013-01-12 04:32:00,69.0,61.0,-100.00,NW,308,3.0,13.0,77,0.00,,,0.00,0.000000,,2013-01-12 14:32:00,
2013-01-12 05:03:00,68.0,60.0,-100.00,East,82,2.0,13.0,76,0.00,,,0.00,0.000000,,2013-01-12 15:03:00,
2013-01-12 05:12:00,68.0,60.0,-100.00,East,82,2.0,13.0,76,0.00,,,0.00,0.000000,,2013-01-12 15:12:00,
2013-01-12 05:22:00,68.0,60.0,-100.00,East,82,2.0,13.0,76,0.00,,,0.00,0.000000,,2013-01-12 15:22:00,
2013-01-12 05:33:00,68.0,60.0,-100.00,East,82,2.0,13.0,76,0.00,,,0.00,0.000000,,2013-01-12 15:33:00,
2013-01-12 05:53:00,66.0,60.0,-100.00,NNE,15,2.0,10.0,82,0.00,,,0.00,0.000000,,2013-01-12 15:53:00,
2013-01-12 06:03:00,66.0,60.0,-100.00,NNE,15,2.0,10.0,82,0.00,,,0.00,0.000000,,2013-01-12 16:03:00,
2013-01-12 06:12:00,66.0,60.0,-100.00,NNE,15,2.0,10.0,82,0.00,,,0.00,0.000000,,2013-01-12 16:12:00,
2013-01-12 06:22:00,66.0,60.0,-100.00,NNE,15,2.0,10.0,82,0.00,,,0.00,0.000000,,2013-01-12 16:22:00,
2013-01-12 06:32:00,66.0,60.0,-100.00,NNE,15,2.0,10.0,82,0.00,,,0.00,0.000000,,2013-01-12 16:32:00,
2013-01-12 06:53:00,66.0,61.0,-100.00,NW,304,3.0,10.0,84,0.00,,,0.00,0.000000,,2013-01-12 16:53:00,
2013-01-12 07:02:00,66.0,61.0,-100.00,NW,304,3.0,10.0,84,0.00,,,0.00,0.000000,,2013-01-12 17:02:00,
2013-01-12 07:12:00,66.0,61.0,-100.00,NW,304,3.0,10.0,84,0.00,,,0.00,0.000000,,2013-01-12 17:12:00,
2013-01-12 07:22:00,66.0,61.0,-100.00,NW,304,3.0,10.0,84,0.00,,,0.00,0.000000,,2013-01-12 17:22:00,
2013-01-12 07:32:00,66.0,61.0,-100.00,NW,304,3.0,10.0,84,0.00,,,0.00,0.000000,,2013-01-12 17:32:00,
2013-01-12 08:02:00,69.0,62.0,-100.00,NE,46,3.0,10.0,78,0.00,,,0.00,0.000000,,2013-01-12 18:02:00,
2013-01-12 08:12:00,69.0,62.0,-100.00,NE,46,3.0,10.0,78,0.00,,,0.00,0.000000,,2013-01-12 18:12:00,
2013-01-12 08:22:00,69.0,62.0,-100.00,NE,46,3.0,10.0,78,0.00,,,0.00,0.000000,,2013-01-12 18:22:00,
2013-01-12 08:33:00,69.0,62.0,-100.00,NE,46,3.0,10.0,78,0.00,,,0.00,0.000000,,2013-01-12 18:33:00,
2013-01-12 08:53:00,72.0,62.0,-100.00,WSW,257,2.0,12.0,71,0.00,,,0.00,7.000000,,2013-01-12 18:53:00,
2013-01-12 09:03:00,72.0,62.0,-100.00,WSW,257,2.0,12.0,71,0.00,,,0.00,7.000000,,2013-01-12 19:03:00,
2013-01-12 09:12:00,72.0,62.0,-100.00,WSW,257,2.0,12.0,71,0.00,,,0.00,7.000000,,2013-01-12 19:12:00,
2013-01-12 09:22:00,72.0,62.0,-100.00,WSW,257,2.0,12.0,71,0.00,,,0.00,7.000000,,2013-01-12 19:22:00,
2013-01-12 09:32:00,72.0,62.0,-100.00,WSW,257,2.0,12.0,71,0.00,,,0.00,7.000000,,2013-01-12 19:32:00,
2013-01-12 10:02:00,77.0,63.0,-100.00,ESE,121,7.0,19.0,62,0.00,,,0.00,187.000000,,2013-01-12 20:02:00,
2013-01-12 10:12:00,77.0,63.0,-100.00,ESE,121,7.0,19.0,62,0.00,,,0.00,187.000000,,2013-01-12 20:12:00,
2013-01-12 10:22:00,77.0,63.0,-100.00,ESE,121,7.0,19.0,62,0.00,,,0.00,187.000000,,2013-01-12 20:22:00,
2013-01-12 10:32:00,77.0,63.0,-100.00,ESE,121,7.0,19.0,62,0.00,,,0.00,187.000000,,2013-01-12 20:32:00,
2013-01-12 10:53:00,75.0,62.0,-100.00,ESE,107,8.0,20.0,64,0.00,,,0.00,461.000000,,2013-01-12 20:53:00,
2013-01-12 11:02:00,75.0,62.0,-100.00,ESE,107,8.0,20.0,64,0.00,,,0.00,461.000000,,2013-01-12 21:02:00,
2013-01-12 11:12:00,75.0,62.0,-100.00,ESE,107,8.0,20.0,64,0.00,,,0.00,461.000000,,2013-01-12 21:12:00,
2013-01-12 11:22:00,75.0,62.0,-100.00,ESE,107,8.0,20.0,64,0.00,,,0.00,461.000000,,2013-01-12 21:22:00,
2013-01-12 11:32:00,75.0,62.0,-100.00,ESE,107,8.0,20.0,64,0.00,,,0.00,461.000000,,2013-01-12 21:32:00,
2013-01-12 11:53:00,78.0,62.0,-100.00,SE,140,7.0,17.0,59,0.00,,,0.00,502.000000,,2013-01-12 21:53:00,
2013-01-12 12:02:00,78.0,62.0,-100.00,SE,140,7.0,17.0,59,0.00,,,0.00,502.000000,,2013-01-12 22:02:00,
2013-01-12 12:12:00,78.0,62.0,-100.00,SE,140,7.0,17.0,59,0.00,,,0.00,502.000000,,2013-01-12 22:12:00,
2013-01-12 12:22:00,78.0,62.0,-100.00,SE,140,7.0,17.0,59,0.00,,,0.00,502.000000,,2013-01-12 22:22:00,
2013-01-12 12:32:00,78.0,62.0,-100.00,SE,140,7.0,17.0,59,0.00,,,0.00,502.000000,,2013-01-12 22:32:00,
2013-01-12 12:53:00,80.0,65.0,-100.00,NW,311,5.0,14.0,60,0.00,,,0.00,543.000000,,2013-01-12 22:53:00,
2013-01-12 13:02:00,80.0,65.0,-100.00,NW,311,5.0,14.0,60,0.00,,,0.00,543.000000,,2013-01-12 23:02:00,
2013-01-12 13:12:00,80.0,65.0,-100.00,NW,311,5.0,14.0,60,0.00,,,0.00,543.000000,,2013-01-12 23:12:00,
2013-01-12 13:22:00,80.0,65.0,-100.00,NW,311,5.0,14.0,60,0.00,,,0.00,543.000000,,2013-01-12 23:22:00,
2013-01-12 13:32:00,80.0,65.0,-100.00,NW,311,5.0,14.0,60,0.00,,,0.00,543.000000,,2013-01-12 23:32:00,
2013-01-12 13:53:00,76.0,63.0,-100.00,SSW,197,5.0,15.0,64,0.00,,,0.00,649.000000,,2013-01-12 23:53:00,
2013-01-12 14:03:00,76.0,63.0,-100.00,SSW,197,5.0,15.0,64,0.00,,,0.00,649.000000,,2013-01-13 00:03:00,
2013-01-12 14:12:00,76.0,63.0,-100.00,SSW,197,5.0,15.0,64,0.00,,,0.00,649.000000,,2013-01-13 00:12:00,
2013-01-12 14:22:00,76.0,63.0,-100.00,SSW,197,5.0,15.0,64,0.00,,,0.00,649.000000,,2013-01-13 00:22:00,
2013-01-12 14:32:00,76.0,63.0,-100.00,SSW,197,5.0,15.0,64,0.00,,,0.00,649.000000,,2013-01-13 00:32:00,
2013-01-12 14:53:00,76.0,65.0,-100.00,SSW,196,7.0,13.0,70,0.00,,,0.00,433.000000,,2013-01-13 00:53:00,
2013-01-12 15:02:00,76.0,65.0,-100.00,SSW,196,7.0,13.0,70,0.00,,,0.00,433.000000,,2013-01-13 01:02:00,
2013-01-12 15:12:00,76.0,65.0,-100.00,SSW,196,7.0,13.0,70,0.00,,,0.00,433.000000,,2013-01-13 01:12:00,
2013-01-12 15:22:00,76.0,65.0,-100.00,SSW,196,7.0,13.0,70,0.00,,,0.00,433.000000,,2013-01-13 01:22:00,
2013-01-12 15:32:00,76.0,65.0,-100.00,SSW,196,7.0,13.0,70,0.00,,,0.00,433.000000,,2013-01-13 01:32:00,
2013-01-12 15:53:00,76.0,65.0,-100.00,South,182,5.0,12.0,70,0.00,,,0.00,292.000000,,2013-01-13 01:53:00,
2013-01-12 16:02:00,76.0,65.0,-100.00,South,182,5.0,12.0,70,0.00,,,0.00,292.000000,,2013-01-13 02:02:00,
2013-01-12 16:12:00,76.0,65.0,-100.00,South,182,5.0,12.0,70,0.00,,,0.00,292.000000,,2013-01-13 02:12:00,
2013-01-12 16:22:00,76.0,65.0,-100.00,South,182,5.0,12.0,70,0.00,,,0.00,292.000000,,2013-01-13 02:22:00,
2013-01-12 16:32:00,76.0,65.0,-100.00,South,182,5.0,12.0,70,0.00,,,0.00,292.000000,,2013-01-13 02:32:00,
2013-01-12 16:53:00,74.0,67.0,-100.00,SSE,166,2.0,10.0,79,0.00,,,0.00,245.000000,,2013-01-13 02:53:00,
2013-01-12 17:02:00,74.0,67.0,-100.00,SSE,166,2.0,10.0,79,0.00,,,0.00,245.000000,,2013-01-13 03:02:00,
2013-01-12 17:12:00,74.0,67.0,-100.00,SSE,166,2.0,10.0,79,0.00,,,0.00,245.000000,,2013-01-13 03:12:00,
2013-01-12 17:22:00,74.0,67.0,-100.00,SSE,166,2.0,10.0,79,0.00,,,0.00,245.000000,,2013-01-13 03:22:00,
2013-01-12 17:32:00,74.0,67.0,-100.00,SSE,166,2.0,10.0,79,0.00,,,0.00,245.000000,,2013-01-13 03:32:00,
2013-01-12 17:53:00,74.0,64.0,-100.00,South,175,1.0,4.0,72,0.00,,,0.00,194.000000,,2013-01-13 03:53:00,
2013-01-12 18:02:00,74.0,64.0,-100.00,South,175,1.0,4.0,72,0.00,,,0.00,194.000000,,2013-01-13 04:02:00,
2013-01-12 18:12:00,74.0,64.0,-100.00,South,175,1.0,4.0,72,0.00,,,0.00,194.000000,,2013-01-13 04:12:00,
2013-01-12 18:22:00,74.0,64.0,-100.00,South,175,1.0,4.0,72,0.00,,,0.00,194.000000,,2013-01-13 04:22:00,
2013-01-12 18:32:00,74.0,64.0,-100.00,South,175,1.0,4.0,72,0.00,,,0.00,194.000000,,2013-01-13 04:32:00,
2013-01-12 18:53:00,69.0,66.0,-100.00,NNE,18,3.0,6.0,89,0.00,,,0.00,155.000000,,2013-01-13 04:53:00,
2013-01-12 19:03:00,69.0,66.0,-100.00,NNE,18,3.0,6.0,89,0.00,,,0.00,155.000000,,2013-01-13 05:03:00,
2013-01-12 19:12:00,69.0,66.0,-100.00,NNE,18,3.0,6.0,89,0.00,,,0.00,155.000000,,2013-01-13 05:12:00,
2013-01-12 19:22:00,69.0,66.0,-100.00,NNE,18,3.0,6.0,89,0.00,,,0.00,155.000000,,2013-01-13 05:22:00,
2013-01-12 19:32:00,69.0,66.0,-100.00,NNE,18,3.0,6.0,89,0.00,,,0.00,155.000000,,2013-01-13 05:32:00,
2013-01-12 20:02:00,66.0,63.0,-100.00,NNE,29,5.0,8.0,90,0.00,,,0.00,12.000000,,2013-01-13 06:02:00,
2013-01-12 20:12:00,66.0,63.0,-100.00,NNE,29,5.0,8.0,90,0.00,,,0.00,12.000000,,2013-01-13 06:12:00,
2013-01-12 20:22:00,66.0,63.0,-100.00,NNE,29,5.0,8.0,90,0.00,,,0.00,12.000000,,2013-01-13 06:22:00,
2013-01-12 20:32:00,66.0,63.0,-100.00,NNE,29,5.0,8.0,90,0.00,,,0.00,12.000000,,2013-01-13 06:32:00,
2013-01-12 21:02:00,64.0,61.0,-100.00,NNE,24,5.0,8.0,89,0.00,,,0.00,0.000000,,2013-01-13 07:02:00,
2013-01-12 21:12:00,64.0,61.0,-100.00,NNE,24,5.0,8.0,89,0.00,,,0.00,0.000000,,2013-01-13 07:12:00,
2013-01-12 21:22:00,64.0,61.0,-100.00,NNE,24,5.0,8.0,89,0.00,,,0.00,0.000000,,2013-01-13 07:22:00,
2013-01-12 21:32:00,64.0,61.0,-100.00,NNE,24,5.0,8.0,89,0.00,,,0.00,0.000000,,2013-01-13 07:32:00,
2013-01-12 22:02:00,65.0,62.0,-100.00,North,11,5.0,9.0,91,0.00,,,0.00,0.000000,,2013-01-13 08:02:00,
2013-01-12 22:11:00,65.0,62.0,-100.00,North,11,5.0,9.0,91,0.00,,,0.00,0.000000,,2013-01-13 08:11:00,
2013-01-12 22:22:00,65.0,62.0,-100.00,North,11,5.0,9.0,91,0.00,,,0.00,0.000000,,2013-01-13 08:22:00,
2013-01-12 22:32:00,65.0,62.0,-100.00,North,11,5.0,9.0,91,0.00,,,0.00,0.000000,,2013-01-13 08:32:00,
2013-01-12 22:53:00,64.0,61.0,-100.00,NNE,13,5.0,9.0,91,0.00,,,0.00,0.000000,,2013-01-13 08:53:00,
2013-01-12 23:02:00,64.0,61.0,-100.00,NNE,13,5.0,9.0,91,0.00,,,0.00,0.000000,,2013-01-13 09:02:00,
2013-01-12 23:12:00,64.0,61.0,-100.00,NNE,13,5.0,9.0,91,0.00,,,0.00,0.000000,,2013-01-13 09:12:00,
2013-01-12 23:22:00,64.0,61.0,-100.00,NNE,13,5.0,9.0,91,0.00,,,0.00,0.000000,,2013-01-13 09:22:00,
2013-01-12 23:32:00,64.0,61.0,-100.00,NNE,13,5.0,9.0,91,0.00,,,0.00,0.000000,,2013-01-13 09:32:00,